Location: Arrien
(43.3167°N, 0.1500°W)
Time: 02:01:08
(UTC+00:00)

Daily predictions for brighter satellites

Satellite Brightness Start Highest point End
(mag) Time Altitude Azimuth Time Altitude Azimuth Time Altitude Azimuth
Cosmos 2263 Rocket 3.8 03:46:18 25° SE 03:48:01 30° ESE 03:52:54 10° NE
SJ 16-02 4.4 03:57:22 10° SE 03:59:41 14° E 04:01:59 10° ENE
ATLAS 3B R/B 4.4 03:59:42 19° N 04:02:13 23° NNE 04:07:38 10° E
Milstar 3 Cent rocket 4.4 04:03:31 23° S 04:05:54 27° SSE 04:15:14 10° ESE
FENGYUN 3A 4.5 04:08:27 10° NNE 04:13:43 49° E 04:18:54 10° S
BREEZE-M DEB (TANK) 4.1 04:16:40 65° WSW 04:18:08 88° NNW 04:45:25 10° ENE
Cosmos 1943 4.2 04:17:13 33° NNE 04:19:06 43° ENE 04:24:32 10° SE
ADEOS 4.4 04:16:22 10° NNE 04:21:28 49° E 04:26:30 10° S
Cosmos 1777 Rocket 4.4 04:23:33 57° NE 04:23:33 57° NE 04:27:48 10° NNE
NOSS 3-4 (A) 4.3 04:19:51 21° S 04:23:26 46° ESE 04:29:17 10° NE
NOSS 3-2 (C) 4.2 04:20:32 41° NNW 04:23:31 71° NE 04:32:04 10° SE
NOSS 3-4 (C) 4.3 04:19:51 20° S 04:23:34 45° ESE 04:29:25 10° NE
Nadezhda 1 Rocket 3.8 04:28:57 60° NNW 04:30:10 82° W 04:36:27 10° S
SL-4 R/B 3.9 04:33:39 23° NE 04:33:39 23° NE 04:35:15 10° NE
Cosmos 2084 4.2 04:33:09 54° ENE 04:33:09 54° ENE 04:37:08 10° SE
Meteor 1-31 Rocket 4.1 04:32:31 10° NNE 04:39:48 10° S 04:39:52 10° S
CENTAUR R/B 3.2 04:32:23 35° NNW 04:36:27 82° NE 04:45:22 10° SE
Cosmos 2227 Rocket 4.4 04:40:17 12° N 04:40:17 12° N 04:40:51 10° N
Cosmos 1538 Rocket 4.2 04:35:15 48° N 04:36:37 68° ENE 04:41:51 10° SSE
Cosmos 2227 4.2 04:36:02 39° SSW 04:38:12 78° ESE 04:43:50 10° NNE
Atlas Centaur 2 4.5 04:37:03 11° SSW 04:39:54 14° SSE 04:42:49 10° SE
ATLAS 2AS CENTAUR R/B 3.6 04:35:16 10° SSW 04:42:57 57° ESE 04:50:39 10° NE
ARGOS Delta rocket 3.8 04:38:22 10° N 04:43:35 88° WNW 04:48:28 10° SSW
deb Chang Zheng 4 4.1 04:42:59 10° NNE 04:47:16 59° ESE 04:51:33 10° S
Cosmos 489 Rocket 4.4 04:45:09 34° NNW 04:48:07 87° WSW 04:54:28 10° SSE
NOSS 3-2 (A) 4.1 04:50:27 43° WNW 04:52:58 59° WSW 05:01:21 10° SSE
Cosmos 1633 3.1 04:51:43 10° S 04:55:10 56° E 04:58:39 10° NNE
Gbstr 26 Del rocket 4.1 04:56:52 28° NNE 04:56:52 28° NNE 05:00:08 10° ENE
SL-16 R/B 4.4 05:02:46 10° SSW 05:02:46 10° SSW 05:02:48 10° SSW
SKYMED 2 4.1 04:54:45 10° SSE 04:58:59 58° ENE 05:02:27 15° N
Lacrosse 4 Rocket 2.4 04:58:46 29° N 05:00:33 46° ENE 05:04:46 10° SE
Cosmos 1184 Rocket 3.5 04:59:01 10° S 05:02:12 52° E 05:05:25 10° NNE
SAR-Lupe-4 3.9 04:59:36 10° SSE 05:03:08 64° ENE 05:03:59 46° NNE
METEOR-M 4.0 04:59:27 10° N 05:04:49 77° WNW 05:10:08 10° SSW
USA 238 DEB 4.0 05:05:55 36° WNW 05:08:38 52° WSW 05:15:53 10° S
USA 238 4.0 05:06:00 36° WNW 05:08:44 52° WSW 05:15:59 10° SSE
Cosmos 1745 Rocket 4.3 05:07:56 33° WSW 05:09:51 41° WNW 05:15:49 10° N
BREEZE-M DEB (TANK) 4.3 05:08:12 14° SSW 05:10:39 36° SE 05:17:33 10° ENE
Cosmos 1461 3.0 05:09:38 46° NW 05:11:01 84° WSW 05:15:32 10° SSE
CZ-4B R/B 3.4 05:09:48 10° NNE 05:14:20 71° ESE 05:18:44 10° S
Meteor 1-26 Rocket 4.3 05:08:53 10° N 05:14:44 79° E 05:20:22 10° SSE
Cosmos 1151 Rocket 2.9 05:12:35 16° N 05:15:56 87° E 05:20:12 10° S
Cosmos 1689 Rocket 2.5 05:13:12 10° SSE 05:16:00 58° ENE 05:16:26 50° NE
ALOS 2.6 05:14:35 10° N 05:18:59 41° WNW 05:19:00 41° WNW
SAR-Lupe-1 3.9 05:16:39 10° SSE 05:20:13 82° WSW 05:21:35 36° NNW
BREEZE-M DEB (TANK) 3.7 05:16:31 27° WNW 05:20:54 71° NNE 05:24:10 10° ESE
H-2A R/B 4.0 05:18:01 10° NNE 05:21:46 43° E 05:25:28 10° S
CZ-4C R/B 2.8 05:17:39 10° SSW 05:22:17 51° ESE 05:27:47 10° NE
CRYOSAT 2 4.2 05:19:09 10° S 05:24:00 79° W 05:28:54 10° N
ERBS 4.0 05:25:08 20° N 05:25:08 20° N 05:26:47 10° NNE
ERS-2 3.3 05:21:09 10° SSW 05:23:14 27° SW 05:23:14 27° SW
BREEZE-M DEB (TANK) 2.2 05:25:50 57° WSW 05:26:20 88° NNW 05:30:03 10° ENE
Cosmos 1328 Rocket 3.4 05:22:11 10° N 05:26:36 82° W 05:31:01 10° S
Cosmos 2181 Rocket 3.9 05:21:15 10° N 05:27:29 78° W 05:33:36 10° S
Lacrosse 5 1.9 05:23:02 11° SW 05:27:52 79° SE 05:32:57 10° NE
Cosmos 2263 Rocket 2.5 05:28:09 20° WSW 05:31:45 42° WNW 05:37:10 10° NNE
PSLV R/B 3.8 05:29:59 10° S 05:34:09 78° WSW 05:38:18 10° NNW
Cosmos 1709 Rocket 4.2 05:29:21 10° SSW 05:35:26 46° WNW 05:41:34 10° N
Meteor PRIRODA 3.5 05:32:38 10° N 05:36:22 72° WNW 05:40:05 10° SSW
Meteor 2-3 Rocket 3.7 05:31:44 10° SSW 05:37:22 61° WNW 05:43:06 10° N
SJ 16-02 1.4 05:33:24 10° SSW 05:37:44 55° WNW 05:42:07 10° N
Okean 3 Rocket 3.9 05:35:09 10° SSW 05:39:16 39° WNW 05:43:25 10° N
FALCON 9 DEB 3.5 05:37:12 15° SW 05:39:38 56° SE 05:42:48 10° ENE
BREEZE-M DEB 4.1 05:31:42 20° WNW 05:39:53 72° NNE 05:43:32 10° ESE
GPS 2-04 Rocket1 4.5 05:37:37 12° SW 05:40:20 23° S 05:43:22 10° ESE
Cosmos 1766 Rocket 3.9 05:36:43 10° SSW 05:40:57 41° WNW 05:45:13 10° N
Cosmos 923 Rocket 3.9 05:37:01 10° NNW 05:42:17 75° WSW 05:47:34 10° SSE
ASTRO F (AKARI) 4.2 05:39:55 10° NNE 05:43:01 81° ESE 05:46:07 10° SSW
Cosmos 1743 Rocket 4.1 05:41:02 10° S 05:45:24 62° E 05:49:50 10° NNE
COSMO-SKYMED 1 2.9 05:42:58 10° S 05:47:04 41° W 05:51:01 11° NNW
SJ-12 4.3 05:44:16 10° N 05:48:01 37° WNW 05:51:46 10° SW
Cosmos 1408 Rocket 3.6 05:45:25 10° SSW 05:49:49 61° W 05:54:15 10° N
CZ-2C R/B 4.2 05:45:39 10° SE 05:50:36 36° ENE 05:55:30 10° N
Cosmos 990 Rocket 3.9 05:47:18 10° SSW 05:52:32 82° WNW 05:57:49 10° NNE
Cosmos 1603 4.5 05:50:21 18° WNW 05:53:26 30° WSW 05:58:15 10° SSW
ATLAS 3B R/B 3.0 05:47:07 10° NNW 05:54:04 74° NE 06:01:18 10° SE
EO 1 Delta rocket 3.9 05:53:24 10° S 05:58:47 76° W 06:03:29 10° NNW
PSLV R/B 3.7 05:55:48 10° NNE 05:59:43 83° WNW 06:03:30 10° SSW
ATLAS 5 CENTAUR R/B 4.0 06:01:57 14° NW 06:01:59 14° NW 06:03:58 10° NNW
Cosmos 1943 4.1 05:59:05 14° NW 06:02:57 29° WSW 06:07:46 10° SSW
ATLAS CENTAUR R/B 2.2 06:00:12 10° NNW 06:03:48 42° NE 06:07:32 10° ESE
Cosmos 2074 Rocket 3.9 05:57:39 10° SSW 06:03:50 70° W 06:10:03 10° N
MOS 1 Rocket 3.3 06:00:11 10° S 06:04:51 74° W 06:09:53 10° NNW
Meteor 1-4 Rocket 3.6 06:06:06 15° NW 06:07:59 23° W 06:10:46 10° SW
FALCON 9 DEB 2.8 06:06:12 10° WSW 06:09:24 80° NW 06:12:38 10° NE
Meteor 1-31 Rocket 4.4 06:08:04 10° NNW 06:10:15 15° WNW 06:10:31 15° WNW
Cosmos 1680 Rocket 3.7 06:06:09 10° NNW 06:11:21 55° WSW 06:16:31 10° S
NOAA 6 4.0 06:06:13 10° NNE 06:11:22 89° ESE 06:16:29 10° SSW
SL-4 R/B 3.2 06:09:15 14° NW 06:11:37 24° N 06:14:40 10° NE
FALCON 9 DEB 2.8 06:08:48 10° WSW 06:12:00 71° NW 06:15:13 10° NE
Cosmos 1782 3.5 06:08:39 10° NNW 06:12:17 33° W 06:15:54 10° SSW
SMAP 3.7 06:08:40 10° NNE 06:13:18 61° E 06:17:53 10° S
RESURS DK-1 2.3 06:09:26 10° SSW 06:13:34 69° WNW 06:17:44 10° NNE
NOSS 3-4 (A) 4.0 06:08:57 10° WSW 06:14:25 37° NW 06:20:17 10° NNE
NOSS 3-4 (C) 4.0 06:09:04 10° WSW 06:14:32 37° NW 06:20:25 10° NNE
H-2A R/B 2.2 06:11:15 10° NNE 06:15:08 82° WNW 06:18:57 10° SSW
Cosmos 2184 Rocket 4.1 06:11:46 10° SSW 06:17:56 57° WNW 06:24:13 10° N
Genesis I 3.1 06:15:01 10° SW 06:18:49 79° NW 06:22:41 10° NNE
Cosmos 405 Rocket 2.5 06:17:35 10° SSW 06:21:15 71° WNW 06:24:58 10° N
Cosmos 2228 Rocket 3.0 06:17:06 10° NNW 06:21:32 76° W 06:25:55 10° S
USA 234 3.3 06:18:32 10° NE 06:25:04 75° NW 06:31:35 10° WSW
CENTAUR R/B 4.2 06:19:55 10° NW 06:26:41 28° WSW 06:33:45 10° SSW
Atlas Centaur 2 4.1 06:24:24 10° SW 06:28:05 18° S 06:31:17 10° SE
Cosmos 2112 Rocket 4.5 06:25:01 10° NNW 06:30:06 44° WSW 06:35:07 10° S
Cosmos 1812 2.8 06:26:22 10° NNW 06:30:08 56° W 06:33:53 10° S
FALCON 9 DEB 3.1 06:28:28 10° WSW 06:31:36 51° NNW 06:34:46 10° NE
Geosat 4.3 06:29:00 10° SE 06:33:59 71° ENE 06:39:01 10° NNW
ATLAS 2AS CENTAUR R/B 3.4 06:26:46 10° WSW 06:34:15 43° NW 06:41:39 10° NNE
EP 3 3.6 06:35:18 10° SW 06:37:20 49° NW 06:39:14 10° NNE
Lacrosse 4 Rocket 3.0 06:35:51 10° WNW 06:38:54 19° WSW 06:41:58 10° SSW
Cosmos 372 Rocket 4.1 06:34:57 10° SSW 06:40:02 83° ESE 06:45:09 10° NNE
Cosmos 1633 Rocket 4.3 06:36:50 10° SSE 06:41:04 46° E 06:45:18 10° NNE
Cosmos 1898 Rocket 4.1 06:37:16 10° SW 06:42:09 36° WNW 06:47:05 10° N
